Powrót do katalogu

STARLINK-4090

AktywnyŁącznośćVLEO
NORAD 53165·PAYLOAD·🇺🇸 United States

Wystrzelony Jul 17, 2022 z Cape Canaveral Space Force Station

Loading…

Następne Przeloty (najbliższe 24 godziny)

TLE

ŚwieżeSource: CelesTrak SupGP

Epoka: Sep 14, 2026, 22:05 UTC

1 53165C 22083AK  26257.92062500 -.00001848  00000+0 -52844-4 0  2577
2 53165  53.1603  29.7929 0001148  73.5920 215.5465 15.35415191    12

Śledź STARLINK-4090 w czasie rzeczywistym z AllMySat

Download on the App Store